This is the latest recevied weather packets stored in our database for station/object KE0FIN. If no packets are shown the sender has not sent any weather packets the latest 10 day(s).
| Time | Temp. | Humidity | Pressure | Rain* | Wind** | Luminosity | Snow |
|---|---|---|---|---|---|---|---|
| 1777121555 | 13.89° C | 96% | 1060 hPa | 0 mm | - | 31 W/m² | - |
| 1777121252 | 13.89° C | 96% | 1060.2 hPa | 0 mm | - | 34 W/m² | - |
| 1777120948 | 13.89° C | 97% | 1059.9 hPa | 0 mm | - | 33 W/m² | - |
| 1777120645 | 13.33° C | 97% | 1059.8 hPa | 0 mm | - | 33 W/m² | - |
| 1777120340 | 13.33° C | 97% | 1059.9 hPa | 0 mm | - | 24 W/m² | - |
| 1777120035 | 12.78° C | 97% | 1059.9 hPa | 0 mm | - | 26 W/m² | - |
| 1777119732 | 12.78° C | 97% | 1059.8 hPa | 0 mm | - | 18 W/m² | - |
| 1777119428 | 12.78° C | 97% | 1059.6 hPa | 0 mm | - | 15 W/m² | - |
| 1777119122 | 12.78° C | 97% | 1059.5 hPa | 0 mm | - | 13 W/m² | - |
| 1777118818 | 12.78° C | 97% | 1059.6 hPa | 0 mm | - | 11 W/m² | - |
| 1777118515 | 12.78° C | 96% | 1059.5 hPa | 0 mm | - | 8 W/m² | - |
| 1777118215 | 12.78° C | 96% | 1059.5 hPa | 0 mm | - | 7 W/m² | - |
| 1777117912 | 12.78° C | 96% | 1059.6 hPa | 0 mm | - | 5 W/m² | - |
| 1777117609 | 12.78° C | 96% | 1059.5 hPa | 0 mm | - | 3 W/m² | - |
| 1777117307 | 12.78° C | 96% | 1059.2 hPa | 0 mm | - | 2 W/m² | - |
| 1777117007 | 12.78° C | 96% | 1059.4 hPa | 0 mm | - | 1 W/m² | - |
| 1777116703 | 12.78° C | 96% | 1059 hPa | 0 mm | - | 0 W/m² | - |
| 1777116398 | 12.78° C | 95% | 1059.4 hPa | 0 mm | - | 0 W/m² | - |
| 1777116095 | 12.78° C | 95% | 1059.1 hPa | 0 mm | - | 0 W/m² | - |
| 1777115795 | 13.33° C | 95% | 1059.1 hPa | 0 mm | - | 0 W/m² | - |
| 1777115491 | 13.33° C | 95% | 1058.9 hPa | 0 mm | - | 0 W/m² | - |
| 1777115187 | 13.33° C | 95% | 1058.9 hPa | 0 mm | - | 0 W/m² | - |
| 1777114885 | 13.33° C | 95% | 1058.9 hPa | 0 mm | - | 0 W/m² | - |
| 1777114581 | 13.33° C | 95% | 1058.7 hPa | 0 mm | - | 0 W/m² | - |
| 1777114280 | 13.33° C | 94% | 1058.7 hPa | 0 mm | - | 0 W/m² | - |
* Rain latest hour (hover to see other rain measurements)
** Current wind speed in m/s (hover to see current wind gust speed)